QPF
0.03 0.04 0.05 0.05 0.05 0.04 0.05 0.05 0.04 0.03 0.04 0.04 0.06 0.08 0.11 0.15 0.13 0.08 0.07 0.05 0.03 0.03 0.03 0.03 0.03 0.03 0.03 0.03 0.03 0.02 0.02 0.03 0.03 0.02 0.01 0.02 0.04 0.05
0.02 0.02 0.03 0.03 0.04 0.05 0.04 0.04 0.03 0.03 0.02 0.02 0.04 0.06 0.07 0.10 0.10 0.07 0.07 0.07 0.05 0.03 0.03 0.02 0.02 0.02 0.02 0.02 0.01 0.02 0.02 0.03 0.02 0.01 0.01 0.02 0.01 0.02
0.02 0.02 0.02 0.02 0.03 0.03 0.03 0.03 0.03 0.04 0.03 0.02 0.03 0.05 0.07 0.08 0.09 0.07 0.07 0.06 0.04 0.04 0.03 0.03 0.03 0.03 0.02 0.01 0.01 0.02 0.03 0.02 0.01 0.01 0.01 0.01 0.01 0.01
0.02 0.02 0.02 0.02 0.04 0.03 0.02 0.02 0.02 0.02 0.03 0.03 0.04 0.04 0.04 0.04 0.05 0.07 0.06 0.05 0.04 0.03 0.04 0.03 0.03 0.03 0.02 0.02 0.02 0.03 0.03 0.02 0.01 0.01 0.01 0.01 0.01 0.01
0.02 0.03 0.02 0.02 0.03 0.02 0.02 0.02 0.02 0.02 0.03 0.04 0.03 0.02 0.02 0.03 0.04 0.04 0.04 0.04 0.03 0.02 0.02 0.02 0.03 0.03 0.03 0.03 0.03 0.03 0.02 0.02 0.02 0.02 0.01 0.01 0.01 0.01
0.01 0.02 0.01 0.01 0.02 0.02 0.01 0.01 0.02 0.02 0.02 0.03 0.04 0.04 0.04 0.03 0.03 0.02 0.02 0.02 0.02 0.01 0.01 0.01 0.02 0.02 0.02 0.02 0.02 0.02 0.02 0.02 0.02 0.02 0.02 0.01 0.01 0.01
0.01 0.01 0.01 0.02 0.02 0.01 0.01 0.01 0.01 0.01 0.02 0.03 0.04 0.03 0.03 0.03 0.02 0.02 0.01 0.02 0.01 0.01 0.01 0.01 0.01 0.01 0.02 0.02 0.02 0.02 0.02 0.02 0.02 0.02 0.02 0.02 0.01 0.00
0.01 0.00 0.00 0.01 0.01 0.02 0.01 0.01 0.01 0.01 0.01 0.02 0.01 0.01 0.01 0.02 0.02 0.02 0.02 0.01 0.01 0.01 0.01 0.02 0.02 0.02 0.02 0.02 0.03 0.03 0.03 0.03 0.02 0.02 0.02 0.02 0.01 0.01
0.00 0.00 0.00 0.00 0.01 0.01 0.01 0.01 0.01 0.01 0.01 0.01 0.01 0.01 0.01 0.01 0.03 0.03 0.02 0.02 0.01 0.01 0.01 0.01 0.01 0.01 0.01 0.02 0.03 0.03 0.02 0.03 0.03 0.02 0.01 0.01 0.01 0.01
0.00 0.01 0.00 0.00 0.01 0.01 0.00 0.00 0.00 0.01 0.01 0.01 0.01 0.01 0.01 0.01 0.02 0.03 0.02 0.01 0.01 0.01 0.01 0.01 0.01 0.01 0.01 0.02 0.03 0.04 0.04 0.04 0.04 0.03 0.02 0.02 0.02 0.02
0.02 0.01 0.01 0.00 0.02 0.01 0.00 0.00 0.01 0.01 0.02 0.01 0.01 0.01 0.01 0.01 0.01 0.01 0.01 0.01 0.00 0.00 0.01 0.01 0.00 0.01 0.01 0.01 0.01 0.02 0.02 0.03 0.03 0.03 0.03 0.03 0.02 0.02
0.02 0.02 0.01 0.01 0.02 0.02 0.01 0.01 0.01 0.01 0.01 0.01 0.01 0.01 0.00 0.00 0.01 0.01 0.01 0.01 0.00 0.00 0.00 0.00 0.00 0.00 0.00 0.00 0.01 0.01 0.01 0.01 0.02 0.02 0.03 0.03 0.03 0.02
0.01 0.02 0.01 0.01 0.02 0.02 0.02 0.01 0.01 0.01 0.01 0.01 0.01 0.00 0.00 0.00 0.01 0.01 0.01 0.01 0.01 0.00 0.00 0.01 0.00 0.01 0.01 0.00 0.01 0.01 0.01 0.01 0.02 0.02 0.02 0.02 0.03 0.03
0.01 0.02 0.02 0.02 0.02 0.02 0.02 0.01 0.02 0.02 0.01 0.01 0.01 0.01 0.01 0.00 0.01 0.01 0.01 0.00 0.00 0.00 0.00 0.01 0.02 0.01 0.01 0.01 0.01 0.01 0.01 0.02 0.02 0.02 0.03 0.03 0.03 0.02
0.01 0.01 0.01 0.01 0.01 0.01 0.01 0.02 0.03 0.02 0.03 0.02 0.02 0.02 0.01 0.01 0.01 0.01 0.01 0.01 0.01 0.00 0.00 0.01 0.02 0.02 0.01 0.01 0.01 0.01 0.02 0.03 0.03 0.03 0.04 0.04 0.03 0.03
0.00 0.01 0.01 0.01 0.01 0.01 0.01 0.02 0.02 0.02 0.02 0.02 0.02 0.02 0.02 0.02 0.01 0.01 0.01 0.01 0.01 0.00 0.00 0.00 0.01 0.02 0.01 0.01 0.01 0.01 0.01 0.01 0.02 0.04 0.04 0.04 0.03 0.03
0.01 0.01 0.00 0.00 0.00 0.00 0.01 0.01 0.01 0.02 0.02 0.01 0.02 0.01 0.01 0.01 0.02 0.02 0.02 0.01 0.01 0.01 0.00 0.00 0.01 0.01 0.01 0.01 0.01 0.02 0.02 0.01 0.02 0.03 0.03 0.03 0.04 0.04
0.01 0.01 0.00 0.00 0.00 0.00 0.00 0.01 0.01 0.01 0.01 0.01 0.01 0.01 0.01 0.01 0.01 0.02 0.02 0.02 0.01 0.01 0.01 0.00 0.01 0.01 0.01 0.01 0.01 0.01 0.01 0.01 0.03 0.03 0.02 0.02 0.02 0.04
0.01 0.01 0.01 0.01 0.00 0.01 0.00 0.01 0.01 0.01 0.01 0.01 0.01 0.01 0.01 0.01 0.01 0.02 0.02 0.02 0.02 0.02 0.01 0.01 0.01 0.01 0.01 0.01 0.01 0.01 0.01 0.01 0.02 0.03 0.03 0.02 0.02 0.02
0.00 0.00 0.01 0.01 0.01 0.01 0.01 0.01 0.01 0.01 0.01 0.01 0.02 0.02 0.02 0.02 0.02 0.02 0.02 0.02 0.02 0.02 0.03 0.01 0.01 0.01 0.01 0.02 0.02 0.01 0.02 0.02 0.02 0.02 0.03 0.02 0.02 0.01
0.00 0.00 0.00 0.01 0.01 0.02 0.02 0.01 0.01 0.01 0.01 0.01 0.01 0.01 0.02 0.03 0.03 0.02 0.03 0.03 0.03 0.03 0.02 0.02 0.01 0.02 0.03 0.03 0.02 0.01 0.02 0.03 0.03 0.02 0.01 0.01 0.01 0.01
0.01 0.01 0.01 0.01 0.01 0.02 0.02 0.02 0.03 0.03 0.03 0.03 0.02 0.02 0.02 0.03 0.03 0.04 0.04 0.04 0.03 0.03 0.02 0.02 0.04 0.03 0.03 0.03 0.03 0.03 0.02 0.02 0.02 0.01 0.01 0.01 0.01 0.01
0.01 0.01 0.01 0.01 0.01 0.01 0.02 0.04 0.05 0.05 0.05 0.05 0.05 0.05 0.04 0.03 0.03 0.03 0.03 0.04 0.03 0.03 0.03 0.03 0.03 0.03 0.03 0.03 0.03 0.03 0.02 0.02 0.01 0.01 0.01 0.01 0.00 0.00
MSLP
1017.56 1017.72 1017.92 1018.15 1018.38 1018.56 1018.65 1018.63 1018.49 1018.21 1017.81 1017.33 1016.79 1016.23 1015.70 1015.21 1014.80 1014.47 1014.25 1014.11 1014.08 1014.12 1014.22 1014.36 1014.52 1014.69 1014.84 1014.95 1015.03 1015.05 1015.02 1014.94 1014.81 1014.65 1014.45 1014.22 1013.97 1013.71
1017.06 1017.18 1017.36 1017.58 1017.81 1018.02 1018.17 1018.23 1018.17 1017.99 1017.70 1017.30 1016.83 1016.32 1015.80 1015.29 1014.85 1014.47 1014.17 1013.97 1013.87 1013.86 1013.92 1014.04 1014.20 1014.37 1014.55 1014.70 1014.82 1014.89 1014.91 1014.88 1014.79 1014.65 1014.47 1014.25 1014.01 1013.75
1016.58 1016.67 1016.82 1017.01 1017.22 1017.44 1017.62 1017.74 1017.77 1017.70 1017.51 1017.23 1016.86 1016.42 1015.96 1015.48 1015.03 1014.62 1014.28 1014.02 1013.84 1013.76 1013.76 1013.82 1013.95 1014.11 1014.28 1014.45 1014.59 1014.70 1014.76 1014.77 1014.72 1014.62 1014.47 1014.27 1014.04 1013.78
1016.16 1016.21 1016.31 1016.46 1016.65 1016.85 1017.05 1017.20 1017.30 1017.32 1017.24 1017.08 1016.83 1016.50 1016.12 1015.71 1015.29 1014.88 1014.52 1014.21 1013.97 1013.81 1013.73 1013.73 1013.79 1013.89 1014.03 1014.18 1014.33 1014.45 1014.53 1014.57 1014.56 1014.50 1014.38 1014.22 1014.01 1013.77
1015.77 1015.79 1015.85 1015.95 1016.09 1016.27 1016.45 1016.62 1016.76 1016.85 1016.87 1016.82 1016.69 1016.49 1016.22 1015.90 1015.54 1015.18 1014.82 1014.49 1014.20 1013.97 1013.82 1013.73 1013.71 1013.74 1013.81 1013.92 1014.03 1014.14 1014.23 1014.29 1014.30 1014.28 1014.20 1014.07 1013.89 1013.68
1015.38 1015.38 1015.40 1015.46 1015.56 1015.69 1015.84 1016.01 1016.16 1016.29 1016.39 1016.43 1016.41 1016.33 1016.18 1015.97 1015.71 1015.41 1015.09 1014.77 1014.46 1014.19 1013.96 1013.79 1013.68 1013.63 1013.62 1013.65 1013.71 1013.78 1013.86 1013.92 1013.95 1013.95 1013.91 1013.82 1013.68 1013.50
1014.92 1014.91 1014.92 1014.95 1015.01 1015.09 1015.21 1015.35 1015.49 1015.64 1015.78 1015.89 1015.97 1016.00 1015.96 1015.87 1015.71 1015.50 1015.25 1014.96 1014.66 1014.37 1014.10 1013.87 1013.68 1013.54 1013.45 1013.41 1013.40 1013.42 1013.46 1013.50 1013.53 1013.54 1013.53 1013.47 1013.38 1013.24
1014.29 1014.31 1014.33 1014.35 1014.39 1014.45 1014.53 1014.63 1014.76 1014.90 1015.06 1015.21 1015.35 1015.46 1015.53 1015.55 1015.50 1015.39 1015.22 1014.99 1014.73 1014.46 1014.18 1013.91 1013.67 1013.46 1013.30 1013.19 1013.12 1013.08 1013.08 1013.09 1013.11 1013.12 1013.11 1013.08 1013.01 1012.91
1013.46 1013.53 1013.58 1013.63 1013.68 1013.73 1013.79 1013.86 1013.96 1014.09 1014.24 1014.41 1014.58 1014.75 1014.90 1015.00 1015.05 1015.04 1014.96 1014.82 1014.62 1014.39 1014.13 1013.87 1013.61 1013.38 1013.18 1013.02 1012.90 1012.81 1012.77 1012.74 1012.73 1012.73 1012.72 1012.69 1012.63 1012.55
1012.41 1012.55 1012.66 1012.76 1012.84 1012.91 1012.97 1013.03 1013.11 1013.21 1013.35 1013.52 1013.71 1013.91 1014.10 1014.27 1014.40 1014.47 1014.48 1014.43 1014.31 1014.14 1013.94 1013.71 1013.49 1013.26 1013.06 1012.89 1012.75 1012.64 1012.56 1012.50 1012.46 1012.43 1012.40 1012.36 1012.29 1012.21
1011.20 1011.41 1011.60 1011.77 1011.90 1012.00 1012.08 1012.15 1012.22 1012.31 1012.43 1012.59 1012.77 1012.99 1013.20 1013.41 1013.59 1013.73 1013.81 1013.83 1013.80 1013.71 1013.59 1013.44 1013.27 1013.10 1012.94 1012.79 1012.66 1012.55 1012.46 1012.39 1012.32 1012.26 1012.20 1012.13 1012.04 1011.94
1009.91 1010.18 1010.45 1010.69 1010.88 1011.03 1011.14 1011.23 1011.31 1011.39 1011.50 1011.65 1011.83 1012.04 1012.26 1012.49 1012.69 1012.87 1013.01 1013.09 1013.13 1013.13 1013.09 1013.03 1012.95 1012.86 1012.77 1012.69 1012.60 1012.52 1012.45 1012.37 1012.29 1012.21 1012.12 1012.02 1011.91 1011.78
1008.65 1008.96 1009.28 1009.57 1009.81 1010.01 1010.16 1010.27 1010.36 1010.46 1010.57 1010.71 1010.89 1011.09 1011.31 1011.53 1011.75 1011.95 1012.11 1012.25 1012.34 1012.42 1012.46 1012.49 1012.52 1012.53 1012.53 1012.53 1012.52 1012.49 1012.46 1012.40 1012.33 1012.24 1012.13 1012.01 1011.88 1011.74
1007.49 1007.82 1008.15 1008.46 1008.73 1008.94 1009.12 1009.26 1009.37 1009.49 1009.61 1009.76 1009.94 1010.14 1010.35 1010.57 1010.79 1010.99 1011.17 1011.33 1011.47 1011.60 1011.73 1011.84 1011.96 1012.08 1012.18 1012.28 1012.36 1012.41 1012.43 1012.42 1012.38 1012.30 1012.20 1012.08 1011.94 1011.79
1006.48 1006.77 1007.08 1007.36 1007.62 1007.84 1008.01 1008.17 1008.30 1008.44 1008.59 1008.76 1008.95 1009.16 1009.38 1009.60 1009.81 1010.01 1010.20 1010.37 1010.55 1010.72 1010.90 1011.09 1011.30 1011.51 1011.72 1011.91 1012.08 1012.22 1012.32 1012.37 1012.37 1012.34 1012.26 1012.16 1012.04 1011.91
1005.61 1005.83 1006.06 1006.28 1006.48 1006.66 1006.82 1006.97 1007.11 1007.27 1007.45 1007.65 1007.88 1008.11 1008.35 1008.58 1008.80 1009.01 1009.20 1009.39 1009.59 1009.79 1010.02 1010.27 1010.55 1010.84 1011.13 1011.42 1011.68 1011.90 1012.07 1012.20 1012.26 1012.29 1012.27 1012.21 1012.13 1012.03
1004.81 1004.93 1005.05 1005.18 1005.30 1005.41 1005.52 1005.65 1005.79 1005.97 1006.18 1006.42 1006.68 1006.96 1007.24 1007.50 1007.75 1007.97 1008.19 1008.40 1008.61 1008.85 1009.12 1009.42 1009.75 1010.10 1010.47 1010.82 1011.16 1011.45 1011.70 1011.90 1012.04 1012.13 1012.17 1012.18 1012.17 1012.13
1004.02 1004.02 1004.03 1004.03 1004.05 1004.07 1004.12 1004.21 1004.34 1004.53 1004.77 1005.05 1005.36 1005.69 1006.02 1006.33 1006.63 1006.90 1007.15 1007.40 1007.65 1007.93 1008.24 1008.59 1008.97 1009.37 1009.78 1010.20 1010.58 1010.94 1011.24 1011.50 1011.71 1011.87 1011.98 1012.07 1012.13 1012.16
1003.18 1003.06 1002.94 1002.84 1002.74 1002.68 1002.66 1002.70 1002.81 1003.00 1003.26 1003.58 1003.94 1004.33 1004.72 1005.09 1005.45 1005.78 1006.10 1006.41 1006.73 1007.06 1007.42 1007.82 1008.24 1008.69 1009.14 1009.59 1010.02 1010.41 1010.76 1011.06 1011.32 1011.54 1011.73 1011.88 1012.01 1012.12
1002.24 1002.03 1001.81 1001.60 1001.41 1001.27 1001.18 1001.18 1001.26 1001.44 1001.71 1002.06 1002.46 1002.90 1003.36 1003.80 1004.23 1004.65 1005.05 1005.44 1005.84 1006.25 1006.68 1007.14 1007.62 1008.11 1008.60 1009.08 1009.53 1009.94 1010.31 1010.65 1010.94 1011.20 1011.44 1011.66 1011.86 1012.04
1001.21 1000.94 1000.65 1000.37 1000.11 999.90 999.76 999.71 999.77 999.93 1000.20 1000.56 1000.99 1001.47 1001.97 1002.49 1003.00 1003.50 1003.99 1004.49 1004.98 1005.49 1006.01 1006.55 1007.09 1007.64 1008.16 1008.67 1009.13 1009.56 1009.94 1010.29 1010.61 1010.90 1011.18 1011.44 1011.70 1011.94
1000.12 999.81 999.49 999.17 998.86 998.61 998.43 998.35 998.37 998.51 998.76 999.11 999.55 1000.05 1000.59 1001.16 1001.75 1002.34 1002.93 1003.53 1004.14 1004.76 1005.39 1006.02 1006.64 1007.24 1007.81 1008.35 1008.83 1009.27 1009.66 1010.01 1010.34 1010.65 1010.96 1011.27 1011.57 1011.87
998.97 998.67 998.34 998.00 997.68 997.41 997.20 997.08 997.07 997.18 997.40 997.73 998.16 998.66 999.23 999.84 1000.48 1001.16 1001.85 1002.56 1003.29 1004.02 1004.76 1005.49 1006.20 1006.87 1007.50 1008.07 1008.58 1009.03 1009.43 1009.80 1010.14 1010.47 1010.81 1011.15 1011.50 1011.85
Thickness
5742 5740 5738 5736 5734 5731 5727 5721 5711 5701 5698 5699 5700 5701 5700 5698 5696 5694 5692 5690 5688 5685 5682 5680 5678 5676 5674 5672 5671 5670 5668 5667 5666 5665 5664 5664 5663 5663
5739 5738 5736 5734 5732 5730 5727 5722 5718 5709 5700 5699 5699 5698 5697 5695 5692 5690 5688 5685 5682 5679 5676 5674 5672 5670 5668 5666 5664 5663 5662 5660 5659 5658 5656 5655 5654 5653
5736 5735 5732 5731 5729 5726 5724 5720 5715 5710 5701 5697 5696 5695 5692 5690 5688 5685 5682 5679 5676 5673 5671 5669 5666 5664 5662 5660 5658 5656 5654 5653 5651 5650 5648 5647 5646 5645
5732 5731 5728 5728 5725 5722 5720 5716 5712 5709 5703 5695 5692 5689 5687 5684 5682 5679 5676 5674 5671 5667 5665 5663 5660 5657 5655 5654 5652 5649 5647 5645 5643 5642 5640 5639 5637 5636
5729 5727 5725 5724 5720 5719 5716 5713 5710 5707 5702 5695 5688 5685 5682 5679 5676 5673 5671 5667 5665 5662 5660 5657 5654 5651 5649 5647 5645 5642 5640 5638 5636 5634 5632 5630 5629 5627
5726 5724 5723 5721 5718 5716 5713 5709 5706 5701 5697 5691 5684 5680 5676 5674 5670 5666 5662 5660 5658 5656 5653 5651 5648 5646 5643 5641 5639 5637 5634 5631 5629 5626 5625 5623 5621 5618
5722 5721 5719 5718 5716 5713 5710 5705 5702 5696 5691 5686 5680 5675 5671 5668 5664 5661 5657 5654 5652 5650 5647 5644 5642 5640 5637 5635 5632 5630 5627 5625 5622 5619 5617 5614 5612 5610
5717 5715 5715 5713 5711 5709 5706 5703 5700 5694 5688 5682 5677 5672 5668 5666 5662 5658 5652 5648 5644 5645 5641 5637 5635 5633 5632 5629 5626 5623 5621 5618 5615 5612 5609 5607 5604 5602
5713 5710 5710 5709 5706 5703 5701 5698 5694 5691 5688 5682 5676 5671 5668 5665 5660 5655 5650 5645 5642 5641 5636 5632 5630 5627 5626 5623 5620 5617 5614 5611 5608 5605 5602 5600 5597 5594
5709 5707 5703 5701 5701 5698 5695 5691 5687 5685 5682 5679 5675 5671 5668 5664 5659 5654 5648 5643 5639 5636 5632 5626 5623 5621 5620 5617 5614 5611 5607 5604 5601 5598 5595 5592 5590 5587
5704 5701 5699 5696 5694 5692 5688 5684 5680 5678 5677 5674 5671 5668 5664 5660 5656 5650 5643 5637 5631 5629 5626 5621 5618 5614 5612 5609 5607 5604 5601 5598 5595 5592 5588 5585 5583 5580
5698 5696 5694 5691 5688 5685 5681 5677 5673 5671 5669 5666 5663 5660 5657 5654 5650 5646 5640 5633 5627 5622 5621 5616 5612 5607 5603 5602 5599 5597 5593 5591 5588 5585 5582 5579 5576 5572
5692 5689 5687 5685 5682 5678 5675 5672 5669 5666 5662 5659 5655 5651 5649 5646 5643 5640 5636 5630 5624 5619 5617 5613 5607 5601 5597 5593 5591 5589 5586 5583 5581 5578 5575 5572 5569 5565
5686 5684 5681 5678 5675 5672 5669 5667 5664 5660 5655 5651 5647 5643 5640 5638 5636 5633 5629 5625 5621 5617 5613 5608 5602 5596 5590 5585 5582 5581 5579 5576 5573 5571 5568 5565 5562 5559
5681 5678 5675 5671 5668 5665 5663 5660 5656 5652 5647 5643 5639 5636 5634 5632 5629 5625 5621 5617 5614 5611 5607 5602 5597 5591 5586 5580 5576 5573 5570 5569 5567 5563 5560 5558 5555 5552
5673 5670 5667 5664 5661 5658 5655 5652 5648 5645 5640 5636 5633 5630 5627 5624 5620 5617 5612 5608 5603 5600 5599 5595 5591 5586 5579 5575 5570 5566 5563 5560 5559 5556 5554 5551 5549 5546
5665 5661 5658 5654 5651 5649 5646 5643 5640 5636 5632 5629 5625 5621 5618 5615 5611 5608 5604 5599 5594 5590 5588 5586 5583 5579 5575 5570 5564 5561 5557 5554 5552 5550 5546 5543 5542 5540
5658 5653 5650 5647 5644 5641 5638 5635 5631 5628 5625 5621 5617 5614 5610 5607 5603 5600 5596 5591 5587 5583 5579 5576 5573 5569 5565 5563 5561 5556 5551 5548 5546 5543 5540 5536 5535 5535
5650 5647 5644 5641 5638 5635 5631 5628 5624 5621 5618 5614 5610 5606 5603 5600 5596 5592 5588 5584 5579 5575 5572 5569 5565 5560 5555 5552 5553 5552 5547 5543 5540 5537 5534 5531 5530 5529
5644 5641 5638 5635 5631 5628 5625 5621 5618 5614 5610 5606 5603 5600 5596 5593 5589 5585 5581 5577 5573 5568 5564 5561 5558 5555 5551 5547 5545 5545 5544 5540 5535 5532 5529 5526 5524 5523
5637 5635 5632 5629 5625 5622 5618 5615 5611 5607 5603 5600 5596 5593 5589 5585 5582 5579 5575 5571 5567 5562 5558 5556 5555 5553 5549 5543 5538 5537 5537 5536 5533 5528 5524 5520 5517 5514
5632 5629 5626 5623 5619 5616 5612 5608 5603 5600 5596 5593 5589 5586 5583 5579 5575 5572 5568 5565 5561 5557 5554 5552 5550 5546 5541 5536 5532 5530 5529 5528 5527 5524 5521 5517 5512 5507
5626 5623 5620 5616 5613 5609 5605 5601 5597 5593 5590 5586 5583 5579 5576 5572 5569 5565 5562 5559 5555 5551 5547 5544 5541 5537 5534 5530 5527 5524 5522 5520 5517 5514 5512 5511 5509 5506